• In Romania
  • List of Countries
  • For 7 days
  • Water Temperature
  • Satellite Maps
  • Weather Map
  • Weather Widgets
  • user-avatar
    Login

    Hourly Weather Natitingou

    Today, 18 October, Wednesday

    Time Temperature Precipitation Wind Pressure Humidity
    00:00 +25°C° 0 mm 1 mps 719 mmHg 35%
    01:00 +24°C° 0 mm 1 mps 718 mmHg 37%
    02:00 +22°C° 0 mm 0 mps 718 mmHg 39%
    03:00 +21°C° 0 mm 0 mps 718 mmHg 41%
    04:00 +21°C° 0 mm 0 mps 718 mmHg 43%
    05:00 +21°C° 0 mm 0 mps 718 mmHg 45%
    06:00 +21°C° 0 mm 0 mps 718 mmHg 50%
    07:00 +24°C° 0 mm 0 mps 719 mmHg 45%
    08:00 +27°C° 0 mm 0 mps 719 mmHg 40%
    09:00 +30°C° 0 mm 0 mps 720 mmHg 35%
    10:00 +34°C° 0 mm 1 mps 719 mmHg 29%
    11:00 +36°C° 0 mm 1 mps 719 mmHg 24%
    12:00 +37°C° 0 mm 1 mps 719 mmHg 19%
    13:00 +38°C° 0 mm 2 mps 718 mmHg 18%
    14:00 +38°C° 0 mm 2 mps 717 mmHg 17%
    15:00 +38°C° 0 mm 2 mps 717 mmHg 16%
    16:00 +36°C° 0 mm 2 mps 716 mmHg 20%
    17:00 +32°C° 0 mm 1 mps 716 mmHg 24%
    18:00 +30°C° 0 mm 1 mps 716 mmHg 28%
    19:00 +29°C° 0 mm 1 mps 717 mmHg 31%
    20:00 +28°C° 0 mm 1 mps 717 mmHg 34%
    21:00 +28°C° 0 mm 1 mps 718 mmHg 36%
    22:00 +27°C° 0 mm 1 mps 718 mmHg 40%
    23:00 +27°C° 0 mm 1 mps 717 mmHg 44%

    Tomorrow, 19 October, Thursday

    Time Temperature Precipitation Wind Pressure Humidity
    00:00 +26°C° 0 mm 1 mps 717 mmHg 47%
    01:00 +26°C° 0 mm 1 mps 717 mmHg 51%
    02:00 +25°C° 0 mm 1 mps 717 mmHg 54%
    03:00 +25°C° 0 mm 1 mps 717 mmHg 58%
    04:00 +24°C° 0 mm 1 mps 717 mmHg 62%
    05:00 +22°C° 0 mm 0 mps 718 mmHg 65%
    06:00 +21°C° 0 mm 0 mps 718 mmHg 69%
    07:00 +26°C° 0 mm 1 mps 719 mmHg 63%
    08:00 +28°C° 0 mm 1 mps 719 mmHg 58%
    09:00 +31°C° 0 mm 2 mps 720 mmHg 52%
    10:00 +34°C° 0 mm 2 mps 720 mmHg 44%
    11:00 +36°C° 0 mm 1 mps 719 mmHg 36%
    12:00 +39°C° 0 mm 1 mps 719 mmHg 28%
    13:00 +39°C° 0 mm 1 mps 718 mmHg 25%
    14:00 +39°C° 0 mm 1 mps 718 mmHg 22%
    15:00 +37°C° 0 mm 1 mps 717 mmHg 20%
    16:00 +35°C° 0 mm 1 mps 717 mmHg 23%
    17:00 +30°C° 0 mm 0 mps 717 mmHg 25%
    18:00 +28°C° 0 mm 0 mps 716 mmHg 28%
    19:00 +27°C° 0 mm 0 mps 717 mmHg 30%
    20:00 +29°C° 0 mm 1 mps 718 mmHg 31%
    21:00 +28°C° 0 mm 1 mps 718 mmHg 32%
    22:00 +28°C° 0 mm 1 mps 718 mmHg 35%
    23:00 +27°C° 0 mm 1 mps 718 mmHg 38%

    Day after tomorrow, 20 October, Friday

    Time Temperature Precipitation Wind Pressure Humidity
    00:00 +27°C° 0 mm 1 mps 718 mmHg 40%
    01:00 +26°C° 0 mm 1 mps 717 mmHg 47%
    02:00 +26°C° 0 mm 1 mps 717 mmHg 54%
    03:00 +25°C° 0 mm 1 mps 717 mmHg 61%
    04:00 +25°C° 0 mm 1 mps 717 mmHg 66%
    05:00 +25°C° 0 mm 1 mps 717 mmHg 71%
    06:00 +24°C° 0 mm 1 mps 718 mmHg 75%
    07:00 +27°C° 0 mm 1 mps 718 mmHg 69%
    08:00 +29°C° 0 mm 1 mps 719 mmHg 62%
    09:00 +31°C° 0 mm 2 mps 719 mmHg 55%
    10:00 +34°C° 0 mm 1 mps 719 mmHg 46%
    11:00 +37°C° 0 mm 1 mps 719 mmHg 37%
    12:00 +38°C° 0 mm 0 mps 718 mmHg 27%
    13:00 +40°C° 0 mm 1 mps 718 mmHg 25%
    14:00 +40°C° 0 mm 1 mps 717 mmHg 23%
    15:00 +39°C° 0 mm 1 mps 716 mmHg 21%
    16:00 +36°C° 0 mm 1 mps 716 mmHg 26%
    17:00 +33°C° 0 mm 1 mps 716 mmHg 30%
    18:00 +31°C° 0 mm 1 mps 716 mmHg 34%
    19:00 +30°C° 0 mm 1 mps 717 mmHg 37%
    20:00 +29°C° 0 mm 1 mps 718 mmHg 41%
    21:00 +28°C° 0 mm 2 mps 718 mmHg 44%
    22:00 +28°C° 0 mm 2 mps 718 mmHg 47%
    23:00 +27°C° 0 mm 1 mps 718 mmHg 50%

    21 October, Saturday

    Time Temperature Precipitation Wind Pressure Humidity
    00:00 +27°C° 0 mm 1 mps 718 mmHg 53%
    01:00 +27°C° 0 mm 1 mps 718 mmHg 58%
    02:00 +26°C° 0 mm 2 mps 717 mmHg 63%
    03:00 +26°C° 0 mm 2 mps 717 mmHg 67%
    04:00 +25°C° 0 mm 2 mps 717 mmHg 73%
    05:00 +25°C° 0 mm 2 mps 718 mmHg 78%
    06:00 +24°C° 0 mm 1 mps 718 mmHg 84%
    07:00 +26°C° 0 mm 2 mps 719 mmHg 75%
    08:00 +29°C° 0 mm 2 mps 719 mmHg 67%
    09:00 +31°C° 0 mm 2 mps 720 mmHg 58%
    10:00 +34°C° 0 mm 1 mps 719 mmHg 49%
    11:00 +37°C° 0 mm 1 mps 719 mmHg 40%
    12:00 +40°C° 0 mm 1 mps 718 mmHg 31%
    13:00 +40°C° 0 mm 1 mps 718 mmHg 28%
    14:00 +40°C° 0 mm 1 mps 717 mmHg 26%
    15:00 +40°C° 0 mm 1 mps 716 mmHg 23%
    16:00 +36°C° 0 mm 1 mps 716 mmHg 27%
    17:00 +34°C° 0 mm 1 mps 716 mmHg 30%
    18:00 +30°C° 0 mm 0 mps 716 mmHg 33%
    19:00 +31°C° 0 mm 1 mps 717 mmHg 35%
    20:00 +30°C° 0 mm 1 mps 717 mmHg 37%
    21:00 +30°C° 0 mm 1 mps 718 mmHg 39%
    22:00 +29°C° 0 mm 1 mps 718 mmHg 43%
    23:00 +28°C° 0 mm 1 mps 718 mmHg 47%

    22 October, Sunday

    Time Temperature Precipitation Wind Pressure Humidity
    00:00 +28°C° 0 mm 1 mps 717 mmHg 50%
    01:00 +27°C° 0 mm 1 mps 717 mmHg 55%
    02:00 +27°C° 0 mm 1 mps 717 mmHg 60%
    03:00 +26°C° 0 mm 1 mps 717 mmHg 65%
    04:00 +26°C° 0 mm 1 mps 717 mmHg 68%
    05:00 +25°C° 0 mm 1 mps 718 mmHg 72%
    06:00 +25°C° 0 mm 2 mps 718 mmHg 76%
    07:00 +27°C° 0 mm 2 mps 718 mmHg 70%
    08:00 +29°C° 0 mm 2 mps 719 mmHg 64%
    09:00 +31°C° 0 mm 3 mps 719 mmHg 57%
    10:00 +34°C° 0 mm 2 mps 719 mmHg 49%
    11:00 +36°C° 0 mm 2 mps 718 mmHg 41%
    12:00 +39°C° 0 mm 1 mps 717 mmHg 33%
    13:00 +39°C° 0 mm 1 mps 717 mmHg 30%
    14:00 +40°C° 0 mm 1 mps 716 mmHg 27%
    15:00 +37°C° 0 mm 0 mps 716 mmHg 25%
    16:00 +37°C° 0 mm 1 mps 716 mmHg 28%
    17:00 +35°C° 0 mm 1 mps 716 mmHg 31%
    18:00 +33°C° 0 mm 1 mps 716 mmHg 35%
    19:00 +32°C° 0 mm 1 mps 717 mmHg 38%
    20:00 +31°C° 0 mm 2 mps 717 mmHg 42%
    21:00 +31°C° 0 mm 2 mps 718 mmHg 45%
    22:00 +30°C° 0 mm 2 mps 717 mmHg 52%
    23:00 +29°C° 0 mm 3 mps 717 mmHg 58%

    23 October, Monday

    Time Temperature Precipitation Wind Pressure Humidity
    00:00 +28°C° 0 mm 3 mps 717 mmHg 65%
    01:00 +27°C° 0 mm 3 mps 717 mmHg 69%
    02:00 +27°C° 0 mm 2 mps 717 mmHg 72%
    03:00 +26°C° 0 mm 2 mps 717 mmHg 76%
    04:00 +26°C° 0 mm 2 mps 717 mmHg 79%
    05:00 +25°C° 0 mm 2 mps 718 mmHg 82%
    06:00 +25°C° 0 mm 2 mps 718 mmHg 84%
    07:00 +27°C° 0 mm 2 mps 718 mmHg 78%
    08:00 +28°C° 0 mm 3 mps 719 mmHg 72%
    09:00 +30°C° 0 mm 3 mps 719 mmHg 65%
    10:00 +33°C° 0 mm 3 mps 718 mmHg 57%
    11:00 +35°C° 0 mm 2 mps 718 mmHg 49%
    12:00 +37°C° 0 mm 2 mps 717 mmHg 41%
    13:00 +37°C° 0 mm 2 mps 717 mmHg 39%
    14:00 +36°C° 0 mm 1 mps 716 mmHg 37%
    15:00 +36°C° 0 mm 1 mps 716 mmHg 35%
    16:00 +35°C° 0 mm 1 mps 716 mmHg 38%
    17:00 +33°C° 0 mm 1 mps 716 mmHg 41%
    18:00 +32°C° 0 mm 1 mps 716 mmHg 43%
    19:00 +31°C° 0 mm 1 mps 717 mmHg 46%
    20:00 +30°C° 0 mm 2 mps 717 mmHg 50%
    21:00 +30°C° 0 mm 2 mps 717 mmHg 53%
    22:00 +29°C° 0 mm 2 mps 717 mmHg 57%
    23:00 +29°C° 0 mm 2 mps 717 mmHg 62%
    Show more